Temp
60 60 60 60 60 60 60 60 60 60 60 60 60 60 60 60 59 55 52 65 64 70 72 73 72 73 70 64 67 66 50 46 52 57 62 72 67 74 80 77 82 82 82 86 86
59 60 59 60 60 59 59 59 60 60 60 60 60 60 60 59 52 52 66 70 71 72 71 68 66 69 61 60 63 58 47 53 61 65 63 70 67 71 76 73 74 77 81 85 86
59 59 59 59 59 59 59 59 59 59 60 60 60 60 59 58 51 62 73 72 72 72 70 70 69 65 58 57 59 56 52 60 66 68 70 70 70 73 72 68 73 75 80 80 80
58 59 59 59 59 59 59 58 58 58 59 59 59 59 59 53 51 70 73 73 72 71 70 68 63 55 55 55 62 54 63 66 68 71 70 69 74 70 71 72 77 79 80 78 77
58 58 58 58 58 58 58 58 58 58 58 58 59 59 54 50 57 74 74 73 71 71 69 65 59 56 52 57 59 55 62 66 69 70 70 72 69 69 68 75 77 79 78 77 73
57 57 57 57 57 57 57 57 57 57 58 58 59 59 51 48 73 75 72 70 72 67 69 64 62 66 58 56 54 61 61 63 64 64 65 64 67 67 72 75 76 77 77 74 76
58 57 57 57 57 57 57 57 57 57 58 59 59 60 52 56 75 72 72 69 73 74 69 72 70 67 60 59 59 62 56 59 60 62 61 64 62 64 71 73 72 73 74 74 73
57 57 57 57 57 57 57 57 57 58 59 60 60 55 50 70 68 70 71 72 75 76 75 76 71 62 57 59 61 55 50 45 57 64 66 63 55 66 71 69 70 71 72 73 73
57 56 57 57 57 57 57 56 57 59 61 61 53 51 52 73 70 74 75 73 76 77 76 82 68 60 60 50 45 46 41 47 53 62 63 60 56 66 70 70 68 70 71 70 70
56 56 55 56 56 56 55 56 57 57 60 63 64 52 61 68 76 78 77 78 73 71 68 64 57 52 48 45 37 43 44 50 49 58 58 54 55 61 65 66 68 66 65 67 69
57 56 56 56 56 55 52 53 54 52 55 56 60 60 69 78 80 75 78 74 71 65 52 58 49 45 51 52 56 54 51 50 54 61 55 53 54 59 62 62 62 63 63 64 65
56 56 56 55 55 55 49 52 61 62 54 62 66 65 73 75 67 73 78 65 62 53 56 51 45 57 60 60 56 54 50 49 54 60 57 55 54 60 60 61 62 64 64 63 63
55 55 55 55 55 50 53 61 70 65 53 62 67 66 68 71 65 68 72 66 59 53 52 48 54 64 61 58 56 54 50 49 50 56 55 52 47 52 58 61 64 64 64 65 65
55 55 55 54 55 56 59 69 68 64 43 55 63 68 70 70 64 76 75 68 59 55 55 52 60 60 57 55 56 47 58 58 55 47 39 50 39 47 54 57 60 64 63 63 64
55 56 55 54 50 55 67 67 66 62 33 63 65 77 71 65 67 68 76 66 58 58 56 53 55 55 53 56 60 53 60 56 54 46 41 44 39 43 52 53 58 61 62 64 67
55 56 55 53 48 58 64 66 62 44 36 60 67 64 60 65 66 69 68 69 67 57 57 57 62 59 58 62 61 62 54 50 46 41 34 41 41 45 48 53 55 60 61 63 66
55 55 52 58 56 61 62 59 43 35 62 59 61 63 60 58 62 63 61 57 53 43 45 55 56 62 63 54 58 54 42 37 32 32 34 45 41 46 52 57 59 59 61 62 60
54 53 52 56 55 61 59 50 35 52 56 65 63 62 56 59 58 59 56 51 56 53 45 43 43 56 64 57 50 49 48 37 28 27 36 45 35 46 56 59 61 62 61 61 64
53 55 55 59 59 60 53 39 43 53 61 58 60 53 52 58 56 55 52 52 55 55 44 41 44 60 62 63 59 49 44 53 43 39 28 33 41 50 57 59 59 60 61 59 64
49 51 58 67 65 59 48 44 50 61 62 60 49 55 49 53 52 51 50 59 57 59 54 46 38 55 59 61 61 55 56 41 36 28 26 32 35 38 49 52 54 53 52 53 55
48 50 65 69 65 54 42 47 57 65 61 56 51 50 51 50 51 50 52 57 61 57 58 48 42 45 52 48 46 47 44 43 40 33 29 26 30 49 47 50 51 50 52 49 52
45 46 64 65 50 48 46 56 55 59 61 57 56 53 50 51 49 49 50 54 63 59 51 51 43 37 43 53 57 52 42 38 29 28 33 31 32 52 51 52 52 52 55 54 62
45 48 61 62 41 41 50 54 57 56 55 54 51 54 53 48 42 48 51 59 61 57 51 48 37 30 35 43 47 42 44 40 36 34 27 22 31 53 53 53 55 53 57 57 58
44 43 52 53 52 43 43 47 47 57 55 54 51 53 49 45 48 45 48 56 59 57 58 53 42 37 32 37 40 38 42 44 39 30 31 33 37 46 50 50 51 52 55 56 55
46 43 46 40 44 44 45 45 44 44 53 52 45 46 43 38 41 43 48 49 53 56 52 46 35 40 42 43 43 41 41 42 38 40 32 39 38 45 50 48 50 53 53 54 56
44 42 43 40 44 43 43 41 42 44 45 44 41 43 42 39 43 39 45 45 43 50 44 43 32 37 37 42 42 39 43 43 44 44 38 39 39 43 47 48 48 50 53 55 57
47 49 44 42 41 37 38 44 42 44 46 48 45 41 38 43 50 51 50 50 48 45 41 39 35 31 28 39 38 30 38 42 43 42 39 34 39 45 45 46 48 49 51 53 54
MSLP
1019.62 1019.28 1018.97 1018.63 1018.31 1018.04 1017.77 1017.50 1017.29 1017.01 1016.74 1016.53 1016.34 1016.14 1015.85 1015.52 1015.04 1014.53 1013.85 1011.37 1011.15 1010.81 1010.86 1010.75 1010.82 1010.81 1011.13 1011.41 1011.30 1011.60 1012.64 1012.89 1012.23 1011.19 1009.28 1007.78 1007.88 1007.05 1005.95 1005.29 1004.52 1004.02 1004.23 1004.26 1004.69
1019.51 1019.14 1018.83 1018.51 1018.20 1017.95 1017.71 1017.50 1017.18 1016.88 1016.59 1016.35 1016.16 1015.97 1015.69 1015.40 1014.96 1013.62 1010.68 1010.65 1010.63 1010.83 1011.10 1011.03 1010.99 1011.02 1011.23 1011.13 1011.25 1011.58 1012.16 1011.90 1010.98 1010.31 1009.34 1007.69 1007.85 1007.25 1006.74 1005.60 1005.08 1004.34 1004.25 1004.49 1004.36
1019.35 1018.96 1018.64 1018.33 1018.04 1017.77 1017.51 1017.27 1017.09 1016.79 1016.54 1016.32 1016.11 1015.87 1015.66 1015.54 1014.80 1011.24 1009.35 1009.99 1010.52 1010.79 1010.99 1011.01 1011.15 1011.51 1011.41 1011.25 1011.20 1011.10 1011.34 1011.05 1010.32 1009.54 1008.63 1007.63 1007.32 1007.23 1006.67 1006.13 1005.65 1005.31 1004.27 1004.66 1004.76
1019.13 1018.73 1018.41 1018.10 1017.81 1017.54 1017.25 1017.00 1016.80 1016.59 1016.38 1016.20 1016.04 1015.78 1015.53 1015.52 1013.39 1009.90 1009.48 1009.99 1010.47 1010.73 1010.97 1010.88 1011.15 1011.27 1011.06 1011.07 1010.66 1011.15 1010.56 1010.12 1009.41 1008.68 1008.41 1007.78 1006.97 1006.60 1006.43 1005.97 1005.45 1004.86 1004.47 1004.59 1005.07
1018.87 1018.51 1018.21 1017.88 1017.61 1017.28 1016.95 1016.69 1016.49 1016.33 1016.20 1016.05 1015.89 1015.68 1015.37 1014.67 1011.87 1009.56 1009.77 1010.20 1010.61 1010.77 1010.69 1010.85 1010.95 1010.97 1010.97 1010.54 1010.37 1010.54 1010.06 1009.46 1008.98 1008.47 1007.99 1007.55 1007.05 1006.65 1005.65 1005.56 1005.15 1004.83 1004.68 1004.61 1005.35
1018.61 1018.19 1017.83 1017.51 1017.19 1016.92 1016.64 1016.43 1016.27 1016.07 1015.87 1015.76 1015.62 1015.47 1015.27 1013.36 1009.35 1009.23 1009.72 1010.35 1010.29 1010.51 1010.43 1010.82 1010.67 1010.19 1010.33 1010.58 1010.74 1010.07 1009.80 1009.22 1008.71 1008.41 1007.91 1007.47 1006.77 1005.98 1004.93 1005.26 1005.20 1005.00 1005.04 1005.21 1004.81
1018.34 1017.91 1017.50 1017.14 1016.82 1016.50 1016.19 1015.95 1015.82 1015.71 1015.55 1015.36 1015.25 1015.15 1014.54 1011.25 1009.29 1009.30 1009.72 1009.66 1009.63 1009.84 1009.94 1009.69 1009.60 1009.75 1010.15 1010.35 1010.15 1009.99 1009.70 1008.97 1008.45 1007.95 1007.54 1007.18 1006.69 1006.13 1005.44 1004.65 1005.12 1005.17 1005.22 1005.18 1005.37
1018.19 1017.66 1017.22 1016.85 1016.51 1016.13 1015.75 1015.48 1015.35 1015.23 1015.01 1014.86 1014.90 1014.73 1013.02 1009.82 1009.58 1009.70 1009.77 1009.52 1009.15 1009.24 1009.38 1008.80 1008.94 1009.51 1009.97 1010.42 1010.32 1010.55 1010.24 1009.68 1008.58 1007.95 1007.29 1007.51 1006.26 1005.87 1005.15 1005.54 1005.07 1004.66 1005.10 1005.19 1005.06
1017.93 1017.50 1016.99 1016.54 1016.12 1015.73 1015.27 1014.91 1014.73 1014.68 1014.61 1014.67 1014.80 1014.26 1011.64 1009.03 1009.23 1008.57 1008.90 1009.14 1008.71 1008.71 1008.68 1008.61 1008.94 1009.71 1010.27 1011.07 1011.69 1011.28 1011.02 1010.20 1009.25 1008.02 1007.67 1007.51 1006.67 1006.11 1005.44 1005.33 1005.18 1004.76 1004.33 1004.93 1005.03
1017.73 1017.19 1016.73 1016.32 1015.91 1015.49 1014.88 1014.29 1014.06 1014.30 1014.33 1014.39 1013.92 1013.77 1010.65 1008.55 1007.63 1007.62 1007.96 1008.31 1008.53 1008.48 1008.87 1009.08 1009.69 1010.28 1011.02 1011.79 1011.95 1011.31 1010.95 1010.00 1009.40 1008.25 1007.87 1007.63 1007.03 1006.40 1005.84 1005.23 1004.83 1004.74 1004.81 1004.71 1004.69
1017.57 1016.97 1016.41 1015.99 1015.67 1015.32 1014.65 1014.13 1014.19 1014.13 1013.56 1012.34 1011.52 1010.79 1009.01 1007.75 1007.01 1007.43 1007.44 1007.87 1008.32 1008.75 1009.52 1009.70 1010.63 1010.77 1010.40 1010.64 1010.47 1010.52 1010.28 1009.75 1008.87 1008.10 1007.64 1007.73 1006.91 1006.37 1005.97 1005.56 1005.21 1005.11 1005.03 1004.71 1004.70
1017.29 1016.67 1016.07 1015.60 1015.25 1015.07 1015.15 1014.31 1012.36 1011.93 1011.27 1010.21 1009.49 1009.31 1008.21 1008.09 1007.98 1007.13 1007.18 1008.06 1008.54 1009.24 1009.68 1010.47 1010.53 1009.70 1009.60 1009.63 1009.81 1009.66 1009.55 1009.05 1008.34 1007.83 1007.61 1007.32 1006.86 1006.38 1006.21 1005.75 1005.19 1005.00 1004.88 1004.75 1004.54
1017.02 1016.40 1015.78 1015.11 1014.61 1014.81 1014.31 1012.68 1010.51 1011.01 1011.08 1008.38 1007.80 1007.87 1007.51 1007.38 1007.30 1006.81 1007.18 1007.71 1008.54 1009.38 1009.83 1010.29 1009.52 1008.86 1009.03 1008.83 1008.75 1008.45 1008.43 1008.34 1008.28 1007.94 1007.75 1007.62 1007.15 1006.50 1005.96 1005.61 1005.30 1004.93 1004.62 1004.41 1004.23
1016.71 1016.11 1015.59 1014.85 1014.27 1014.03 1013.11 1011.19 1010.70 1010.78 1010.76 1008.21 1006.57 1005.91 1006.40 1006.66 1006.29 1005.61 1006.27 1007.44 1008.14 1008.73 1009.26 1009.34 1008.52 1008.49 1008.19 1008.03 1007.92 1007.79 1007.53 1007.59 1007.86 1008.35 1008.63 1008.03 1006.63 1006.83 1006.05 1005.35 1005.10 1004.65 1004.31 1003.95 1003.79
1016.41 1015.73 1015.32 1015.33 1014.73 1013.74 1011.67 1010.82 1010.52 1010.63 1009.84 1006.61 1005.49 1004.45 1005.19 1006.08 1005.64 1005.21 1005.36 1006.56 1007.19 1007.83 1008.66 1008.14 1008.02 1007.88 1007.62 1007.21 1007.12 1007.07 1006.93 1007.48 1007.79 1008.36 1008.75 1008.52 1007.61 1006.40 1006.13 1005.51 1004.65 1003.99 1003.56 1003.05 1002.91
1015.71 1015.25 1014.89 1014.59 1014.48 1012.28 1011.37 1010.85 1010.71 1011.16 1008.47 1006.16 1005.17 1005.03 1005.76 1005.66 1005.44 1005.33 1005.62 1005.88 1006.19 1007.25 1007.55 1007.31 1006.79 1007.00 1006.49 1006.26 1006.41 1006.41 1006.94 1007.35 1007.93 1008.77 1009.08 1008.72 1007.53 1006.03 1005.98 1004.98 1004.39 1003.66 1003.25 1002.75 1002.17
1014.94 1013.97 1014.42 1013.67 1012.55 1011.41 1011.49 1011.33 1011.51 1010.33 1007.29 1006.59 1005.89 1005.64 1005.83 1005.97 1005.89 1005.75 1005.88 1006.21 1006.61 1007.21 1007.19 1006.69 1006.46 1006.01 1005.90 1006.02 1006.22 1006.62 1007.44 1008.13 1008.73 1009.39 1008.47 1008.42 1007.35 1004.97 1004.93 1004.44 1003.89 1003.22 1002.60 1002.20 1001.84
1014.23 1012.99 1012.87 1012.37 1011.58 1011.87 1011.96 1012.05 1011.41 1009.25 1007.84 1006.82 1006.47 1006.13 1006.27 1006.31 1006.05 1006.06 1006.23 1006.64 1006.50 1006.54 1007.05 1007.05 1006.46 1005.77 1005.33 1005.70 1006.10 1006.44 1007.25 1008.37 1008.35 1009.27 1008.72 1008.42 1006.73 1004.62 1003.89 1003.47 1003.11 1002.83 1002.37 1001.93 1001.77
1014.02 1012.74 1012.34 1010.95 1011.45 1011.98 1012.42 1012.17 1010.78 1009.11 1008.17 1007.67 1007.07 1006.74 1006.81 1006.70 1007.08 1006.81 1006.81 1006.75 1006.59 1007.06 1007.68 1007.37 1006.62 1005.99 1005.48 1005.33 1005.83 1006.03 1006.79 1007.41 1008.60 1009.70 1009.80 1008.81 1007.09 1005.33 1004.37 1003.47 1003.11 1002.33 1002.28 1001.88 1001.20
1015.01 1013.66 1011.59 1010.17 1010.93 1011.84 1012.56 1011.98 1010.58 1009.43 1008.81 1008.27 1008.12 1007.94 1007.90 1007.66 1007.59 1007.49 1007.27 1006.66 1006.47 1006.61 1007.06 1007.29 1006.76 1006.06 1005.80 1005.61 1005.72 1006.21 1006.83 1007.89 1009.19 1010.55 1010.49 1009.38 1008.11 1006.27 1004.87 1004.17 1003.71 1003.13 1002.58 1002.37 1002.35
1015.31 1013.69 1010.86 1010.15 1010.89 1012.27 1012.63 1011.84 1010.54 1009.45 1009.47 1009.10 1009.27 1009.14 1009.06 1008.67 1008.52 1008.25 1007.62 1007.20 1006.57 1006.63 1006.87 1007.29 1007.37 1007.05 1006.91 1006.63 1006.44 1006.93 1007.66 1009.21 1010.34 1011.29 1011.10 1010.24 1008.33 1006.54 1005.57 1005.49 1004.65 1004.29 1003.51 1003.18 1002.74
1016.22 1014.29 1011.49 1010.89 1012.15 1012.68 1012.67 1011.76 1011.05 1010.33 1010.06 1009.96 1009.91 1010.12 1010.10 1009.66 1008.78 1008.55 1008.02 1007.62 1007.09 1006.94 1007.52 1007.81 1008.11 1008.03 1007.68 1007.12 1006.80 1007.17 1008.46 1009.66 1010.50 1011.60 1011.68 1011.13 1008.94 1007.13 1006.53 1006.13 1005.75 1004.90 1003.33 1002.84 1002.47
1017.33 1015.29 1011.99 1011.84 1013.21 1013.92 1013.33 1012.62 1011.86 1011.17 1010.97 1010.85 1011.03 1011.19 1011.06 1010.63 1010.07 1009.14 1008.58 1008.33 1007.86 1007.95 1008.18 1008.63 1009.11 1009.20 1008.45 1007.94 1007.87 1008.22 1009.09 1009.86 1010.82 1011.45 1011.39 1010.77 1008.41 1006.79 1005.69 1006.10 1005.57 1005.16 1003.53 1003.21 1002.45
1018.07 1016.42 1014.53 1014.09 1014.72 1015.18 1014.73 1013.51 1012.85 1012.23 1011.91 1012.05 1012.08 1012.18 1011.82 1011.26 1010.68 1010.02 1009.58 1008.93 1008.79 1008.89 1009.01 1009.52 1009.85 1010.05 1009.83 1009.61 1009.57 1009.71 1009.53 1009.89 1010.52 1011.01 1010.43 1009.64 1008.07 1007.02 1005.87 1005.80 1005.37 1004.79 1003.71 1002.82 1002.47
1018.35 1017.99 1017.71 1016.68 1016.13 1016.31 1016.05 1015.07 1013.99 1013.35 1012.71 1012.93 1012.98 1013.15 1013.25 1012.37 1011.48 1010.52 1009.97 1009.65 1009.46 1009.58 1009.53 1010.17 1010.38 1010.50 1010.28 1010.05 1009.82 1009.54 1009.40 1009.38 1009.56 1009.34 1009.53 1008.41 1007.74 1006.65 1006.03 1005.98 1005.43 1004.83 1003.60 1003.07 1002.31
1019.26 1019.23 1018.76 1018.39 1017.62 1016.93 1016.19 1015.65 1015.14 1014.73 1014.46 1013.77 1013.89 1013.81 1013.79 1013.01 1012.06 1010.94 1010.52 1010.17 1010.11 1009.69 1010.08 1010.53 1010.89 1010.98 1010.56 1010.37 1009.84 1009.17 1008.59 1008.34 1008.29 1008.19 1008.13 1008.07 1007.30 1006.83 1005.97 1005.61 1005.57 1004.89 1004.36 1003.74 1002.94
1019.87 1019.67 1019.55 1018.82 1018.23 1017.80 1016.77 1016.08 1015.83 1015.77 1014.91 1014.39 1014.38 1013.97 1013.36 1012.26 1011.45 1010.55 1009.86 1009.33 1009.41 1009.67 1010.20 1010.91 1011.13 1011.70 1011.33 1010.42 1009.92 1009.09 1008.00 1007.59 1007.49 1007.83 1008.23 1008.29 1008.11 1007.63 1006.79 1006.51 1005.90 1005.30 1004.77 1004.32 1003.93
Wind_Speed
15 15 15 14 14 14 14 14 14 14 13 13 13 13 14 14 14 2 6 11 8 10 2 4 2 4 3 3 3 4 2 4 7 8 12 14 4 4 7 6 11 5 8 8 7
15 14 14 15 14 14 14 14 14 14 13 13 12 12 13 13 4 8 13 12 14 7 3 3 3 3 1 3 2 5 4 8 7 9 11 18 5 5 7 7 6 4 2 7 6
15 15 15 14 14 14 14 14 14 13 13 12 12 12 12 10 4 8 8 15 10 8 3 1 1 1 5 2 5 4 6 6 11 12 14 18 11 6 4 4 7 9 10 6 8
16 15 15 15 15 15 14 14 14 13 13 12 11 12 12 1 2 4 5 11 8 4 2 0 0 3 5 6 7 4 8 11 12 15 13 15 14 7 8 9 6 9 6 6 10
17 16 16 15 15 15 14 14 14 14 13 12 10 9 3 1 10 5 10 8 4 4 4 2 2 2 3 4 4 4 8 9 13 16 15 16 16 9 6 6 2 7 4 9 8
18 17 17 16 15 15 15 14 13 13 12 10 7 7 1 4 5 9 9 6 6 5 4 6 6 9 3 2 1 4 4 7 7 7 6 5 7 5 8 6 4 5 8 7 9
18 18 17 17 16 16 15 13 11 11 10 7 4 3 2 14 5 7 9 8 5 5 4 5 2 6 1 7 0 5 6 8 4 4 5 2 10 9 10 9 8 9 9 9 10
18 17 18 17 16 15 16 15 14 13 10 5 4 2 8 6 2 4 5 7 8 8 8 6 3 1 2 3 10 6 4 4 7 5 6 5 14 13 12 5 15 9 9 9 11
19 17 17 16 16 16 16 15 15 12 6 6 3 2 10 11 7 12 12 10 8 6 6 6 2 3 3 3 6 3 4 7 9 4 7 5 13 10 10 13 15 13 12 8 10
20 18 17 17 15 15 15 17 6 6 3 5 5 3 6 4 5 5 8 11 5 2 1 0 4 1 3 5 5 6 4 5 5 5 4 4 9 8 10 11 16 9 7 7 7
22 19 17 15 14 11 8 4 3 2 3 10 7 6 9 5 6 5 6 4 3 3 1 5 2 6 13 10 12 8 8 11 6 6 3 5 10 11 8 7 7 7 6 7 6
23 22 20 17 12 6 1 1 7 2 9 17 18 14 16 8 7 6 6 4 5 6 3 4 6 15 10 13 11 12 12 7 6 5 5 10 14 12 6 7 6 7 8 9 6
21 21 21 20 19 3 4 8 7 6 4 10 9 8 9 7 11 9 9 6 6 5 6 8 10 9 10 13 13 12 7 5 6 5 4 4 7 7 5 5 6 7 8 9 11
22 21 20 25 1 3 5 6 9 5 4 8 6 7 6 5 5 10 12 10 5 13 9 8 10 7 8 6 4 5 7 9 6 2 5 2 15 5 9 12 7 10 10 9 11
22 21 18 8 5 2 7 10 8 6 3 4 4 5 8 9 3 2 8 5 14 10 7 11 6 9 10 9 9 12 10 11 10 6 5 5 11 4 5 15 18 12 11 12 13
26 20 15 2 2 9 9 12 4 5 5 4 5 5 6 7 6 2 6 4 5 7 6 13 6 6 11 13 9 12 6 4 2 2 7 8 9 10 8 12 7 8 8 10 15
29 27 5 3 6 1 5 4 5 3 7 6 3 5 5 3 10 6 7 7 10 4 9 14 16 11 9 7 9 7 3 9 7 5 14 9 10 15 7 7 13 13 9 8 10
30 27 4 5 4 3 4 4 3 4 4 10 11 3 4 4 4 4 3 5 9 7 0 5 9 10 4 5 8 5 7 5 8 7 14 3 8 12 7 10 12 8 8 3 7
27 4 3 4 6 2 5 3 4 3 10 11 11 4 5 6 1 8 4 4 3 5 5 4 5 3 5 5 2 3 5 6 8 3 1 5 7 9 15 16 10 15 10 5 7
7 4 4 3 7 4 4 4 4 4 10 7 6 5 7 9 5 6 3 4 9 4 4 3 6 3 5 7 7 5 2 5 3 3 6 4 6 10 13 5 5 7 6 5 3
3 4 4 8 4 4 2 5 6 10 12 7 6 6 11 2 2 3 3 11 6 8 11 4 2 4 11 2 2 4 0 2 3 5 4 3 6 4 6 8 9 5 3 1 2
4 4 3 5 2 1 1 4 8 12 11 9 7 15 8 12 5 3 5 6 10 9 9 2 4 5 9 12 16 4 5 4 5 5 3 3 5 12 8 9 10 18 8 6 6
5 4 6 4 2 4 6 7 8 11 10 8 6 8 5 5 6 6 7 12 13 9 7 2 3 5 6 6 6 5 2 3 3 3 6 3 6 5 12 12 19 13 17 10 9
3 4 5 5 3 2 5 4 12 13 8 7 6 11 11 7 6 7 12 7 10 10 9 8 4 8 9 7 2 6 14 8 6 3 7 11 14 15 19 5 8 11 17 17 9
3 3 3 4 2 10 7 8 14 12 4 7 5 6 11 6 13 9 12 15 13 8 3 4 4 3 8 8 9 11 13 13 13 13 9 15 11 15 10 5 9 9 8 9 8
3 4 4 4 7 8 3 3 9 9 6 7 4 13 13 10 12 18 15 12 13 5 2 2 5 3 13 11 12 15 15 13 12 12 5 8 12 3 4 3 6 8 9 10 5
3 2 0 3 4 3 4 2 6 12 7 4 13 15 13 16 14 15 13 14 11 12 5 4 5 2 5 5 6 6 7 4 5 3 4 4 5 9 10 10 10 10 9 5 6
Wind_Direction
338 332 330 328 327 328 326 324 325 322 323 323 323 323 323 324 319 312 253 227 196 237 319 325 307 261 112 226 210 113 98 224 236 233 260 284 298 311 264 228 226 212 165 176 179
334 331 329 323 322 321 322 320 318 320 321 322 323 324 325 331 309 251 237 218 225 174 208 228 284 345 278 221 249 136 154 223 223 254 268 280 273 313 302 316 315 317 242 131 136
335 330 327 323 320 318 316 317 317 318 320 321 322 321 321 327 315 254 229 213 183 171 227 189 293 196 204 146 233 212 206 236 264 252 263 279 284 279 219 297 252 259 238 120 114
336 331 327 323 320 317 314 315 316 317 319 320 317 315 311 272 261 301 127 173 172 182 231 165 124 211 193 202 218 221 246 233 253 256 263 271 273 261 196 221 246 271 239 120 119
338 333 327 321 317 313 312 310 312 313 314 313 310 312 350 225 248 210 155 155 158 175 207 166 321 218 267 272 324 179 252 249 246 261 265 271 276 254 226 193 310 349 247 158 154
341 335 329 323 317 312 309 306 302 304 311 311 300 309 200 269 238 159 149 156 219 189 197 149 225 226 200 221 162 295 275 254 267 240 230 236 272 332 283 157 218 244 276 287 187
344 337 331 324 319 315 310 307 303 303 307 302 273 257 248 236 299 155 167 197 194 206 242 209 218 48 347 334 297 293 331 323 292 282 259 300 290 251 277 314 203 210 227 227 241
343 340 335 329 322 315 312 309 305 303 301 267 211 225 248 246 227 238 203 289 244 234 224 278 303 16 71 323 350 343 7 331 285 303 270 125 265 274 273 228 274 232 208 225 237
345 340 337 331 323 317 311 300 295 293 310 159 156 158 266 302 180 216 195 219 229 259 239 243 112 170 334 68 358 329 244 270 301 223 262 164 279 291 297 258 244 258 274 228 230
345 342 337 334 330 322 307 292 266 312 178 196 263 331 273 231 201 199 184 210 225 340 41 159 54 146 17 91 228 233 224 260 239 298 171 267 265 271 288 283 242 229 254 268 295
345 340 339 336 329 326 342 11 24 65 237 201 196 244 289 292 121 193 210 242 242 77 257 286 104 233 243 206 234 249 260 264 259 243 321 283 271 289 295 319 292 264 269 270 248
340 340 337 331 323 317 308 202 232 206 291 226 233 223 256 270 283 196 168 160 148 209 251 349 248 249 245 257 231 240 235 249 260 256 295 287 284 286 271 272 237 253 277 264 261
335 335 335 327 318 134 199 231 256 10 300 287 209 211 226 179 237 213 165 190 187 208 227 206 248 275 253 260 261 254 221 232 244 292 323 296 294 298 296 256 270 269 247 267 264
331 332 334 328 1 343 259 282 303 166 24 277 191 220 187 207 260 212 183 169 191 215 232 236 253 258 300 284 262 274 243 240 237 165 251 182 283 262 287 294 264 273 275 259 255
327 326 325 314 292 289 251 328 316 57 341 188 177 170 158 170 190 256 169 154 215 209 153 237 252 272 287 266 278 271 266 243 240 224 141 243 270 217 299 288 285 282 270 266 270
324 321 321 112 193 245 306 307 57 52 263 213 152 177 125 215 234 258 181 199 199 208 222 243 223 181 240 265 258 264 297 282 339 131 245 215 240 255 255 262 257 258 265 276 303
324 314 281 270 221 257 335 27 49 172 294 7 358 182 222 240 245 234 226 213 210 186 243 247 253 251 245 261 307 281 339 284 285 286 264 206 248 262 231 260 242 255 270 308 9
325 314 191 214 247 331 26 54 195 272 324 337 357 320 192 27 307 360 11 255 252 225 15 215 279 218 194 193 205 236 195 224 261 270 284 233 247 263 227 235 250 252 250 123 73
322 319 252 249 192 103 74 84 229 308 355 331 313 334 341 344 75 15 337 264 40 148 220 252 239 313 280 299 303 282 260 247 268 163 351 233 292 294 269 273 292 259 211 207 154
322 320 269 148 137 79 78 240 258 322 355 342 18 343 322 309 316 346 264 278 326 42 136 249 287 107 325 313 296 234 295 312 353 301 245 248 276 261 298 319 343 14 17 61 88
341 0 289 123 83 56 179 238 286 357 30 11 356 330 323 327 6 322 283 320 356 357 2 335 207 324 339 282 263 323 246 86 133 165 246 283 245 279 1 311 324 266 292 157 58
347 2 309 18 45 228 217 328 331 11 13 9 358 349 346 308 241 263 275 300 322 4 327 8 290 279 265 253 257 256 154 147 136 209 221 282 258 265 305 309 326 302 233 239 232
342 282 316 87 32 355 327 313 2 354 357 348 344 315 346 302 331 357 357 342 11 1 12 67 309 327 318 340 13 69 170 142 80 87 200 200 262 280 291 323 309 310 298 278 230
342 352 340 31 86 45 334 313 340 343 335 6 332 340 342 317 337 309 310 305 341 334 47 2 238 233 265 256 259 292 293 279 203 210 268 245 276 284 288 262 268 291 298 269 260
19 357 357 331 330 328 339 309 319 322 6 6 325 315 337 300 319 289 318 321 322 288 145 215 252 265 276 280 282 275 272 267 261 249 225 278 260 272 273 247 270 267 312 290 266
29 0 7 295 308 307 332 294 288 333 335 310 304 317 307 275 266 292 293 283 264 276 173 193 252 247 276 265 261 272 276 275 274 274 281 293 287 357 277 320 285 302 302 300 355
334 5 118 265 305 292 243 309 311 316 285 281 319 304 288 269 276 274 256 255 237 248 244 214 184 155 264 260 282 292 266 236 242 58 253 270 335 327 340 326 323 308 326 6 331